Location: Lecco
(45.8566°N, 9.3977°E)
Time: 04:17:19
(UTC+02:00)

Transit 4A - Pass Details

Date: 20 August 2020
Orbit: 863 x 982 km, 66.8° (Epoch: 23 September)

Event Time Altitude Azimuth Distance (km) Brightness Sun altitude
Rises 16:11:44 0° 329° (NNW) 3,656 11.0 41.4°
Reaches altitude 10° 16:14:23 10° 334° (NNW) 2,719 10.4 41.0°
Maximum altitude 16:20:34 50° 50° (NE) 1,236 8.7 40.0°
Drops below altitude 10° 16:26:47 10° 124° (SE) 2,730 10.2 39.1°
Sets 16:29:26 0° 130° (SE) 3,672 10.8 38.7°
